contact:dominique.lefevre@mio.osupytheas.fr, maurice.libes@osupytheas.fr, didier.mallarino@osupytheas.fr
Project:EMSO http://www.emso-fr.org/EMSO-France
Depth: 2436.0 m
Title:EMSO Ligure Ouest : Data MII capteur MICROCAT
DateTime_Computer,Latitude,Longitude,Temperature,Conductivity,Pressure,DateTime_Instrument
DateTime_Computer,Latitude,Longitude,degC,S m-1,dbar,DateTime_Instrument
2023-07-19T00:02:57Z,42.805,6.029,13.3037,4.60143,2470.73,2023-7-19T02:05:14Z
2023-07-19T00:06:00Z,42.805,6.029,13.3045,4.60134,2470.717,2023-7-19T02:08:17Z
2023-07-19T00:09:03Z,42.805,6.029,13.3048,4.60168,2470.717,2023-7-19T02:11:20Z
2023-07-19T00:12:07Z,42.805,6.029,13.3043,4.60144,2470.717,2023-7-19T02:14:24Z
2023-07-19T00:15:10Z,42.805,6.029,13.3048,4.60145,2470.73,2023-7-19T02:17:27Z
2023-07-19T00:18:13Z,42.805,6.029,13.3055,4.60144,2470.717,2023-7-19T02:20:30Z
2023-07-19T00:21:16Z,42.805,6.029,13.3048,4.60139,2470.717,2023-7-19T02:23:33Z
2023-07-19T00:24:19Z,42.805,6.029,13.3041,4.60154,2470.693,2023-7-19T02:26:36Z
2023-07-19T00:27:22Z,42.805,6.029,13.3043,4.60157,2470.693,2023-7-19T02:29:39Z
2023-07-19T00:30:25Z,42.805,6.029,13.3041,4.60147,2470.679,2023-7-19T02:32:42Z
2023-07-19T00:33:28Z,42.805,6.029,13.3051,4.60142,2470.707,2023-7-19T02:35:45Z
2023-07-19T00:36:31Z,42.805,6.029,13.3042,4.60132,2470.67,2023-7-19T02:38:48Z
2023-07-19T00:39:34Z,42.805,6.029,13.3038,4.60152,2470.707,2023-7-19T02:41:51Z
2023-07-19T00:42:37Z,42.805,6.029,13.3050,4.60152,2470.67,2023-7-19T02:44:54Z
2023-07-19T00:45:40Z,42.805,6.029,13.3042,4.60148,2470.67,2023-7-19T02:47:57Z
2023-07-19T00:48:44Z,42.805,6.029,13.3045,4.60135,2470.67,2023-7-19T02:51:01Z
2023-07-19T00:51:47Z,42.805,6.029,13.3039,4.60144,2470.67,2023-7-19T02:54:04Z
2023-07-19T00:54:50Z,42.805,6.029,13.3032,4.60127,2470.693,2023-7-19T02:57:07Z
2023-07-19T00:57:53Z,42.805,6.029,13.3040,4.60148,2470.646,2023-7-19T03:00:10Z
2023-07-19T01:00:56Z,42.805,6.029,13.3041,4.60155,2470.67,2023-7-19T03:03:13Z
2023-07-19T01:03:59Z,42.805,6.029,13.3033,4.60134,2470.656,2023-7-19T03:06:16Z
2023-07-19T01:07:02Z,42.805,6.029,13.3033,4.60137,2470.624,2023-7-19T03:09:19Z
2023-07-19T01:10:05Z,42.805,6.029,13.3040,4.60126,2470.693,2023-7-19T03:12:22Z
2023-07-19T01:13:08Z,42.805,6.029,13.3034,4.60144,2470.684,2023-7-19T03:15:25Z
2023-07-19T01:16:11Z,42.805,6.029,13.3048,4.60150,2470.624,2023-7-19T03:18:28Z
2023-07-19T01:19:14Z,42.805,6.029,13.3042,4.60138,2470.646,2023-7-19T03:21:31Z
2023-07-19T01:22:17Z,42.805,6.029,13.3039,4.60137,2470.684,2023-7-19T03:24:34Z
2023-07-19T01:25:20Z,42.805,6.029,13.3056,4.60144,2470.646,2023-7-19T03:27:37Z
2023-07-19T01:28:24Z,42.805,6.029,13.3035,4.60140,2470.67,2023-7-19T03:30:41Z
2023-07-19T01:31:27Z,42.805,6.029,13.3039,4.60142,2470.646,2023-7-19T03:33:44Z
2023-07-19T01:34:30Z,42.805,6.029,13.3034,4.60157,2470.646,2023-7-19T03:36:47Z
2023-07-19T01:37:33Z,42.805,6.029,13.3056,4.60153,2470.67,2023-7-19T03:39:50Z
2023-07-19T01:40:36Z,42.805,6.029,13.3043,4.60157,2470.646,2023-7-19T03:42:53Z
2023-07-19T01:43:39Z,42.805,6.029,13.3041,4.60151,2470.646,2023-7-19T03:45:56Z
2023-07-19T01:46:42Z,42.805,6.029,13.3048,4.60148,2470.661,2023-7-19T03:48:59Z
2023-07-19T01:49:45Z,42.805,6.029,13.3050,4.60140,2470.646,2023-7-19T03:52:02Z
2023-07-19T01:52:48Z,42.805,6.029,13.3043,4.60144,2470.646,2023-7-19T03:55:05Z
2023-07-19T01:55:51Z,42.805,6.029,13.3037,4.60138,2470.646,2023-7-19T03:58:08Z
2023-07-19T01:58:54Z,42.805,6.029,13.3038,4.60124,2470.661,2023-7-19T04:01:11Z
2023-07-19T02:01:57Z,42.805,6.029,13.3039,4.60132,2470.614,2023-7-19T04:04:14Z
2023-07-19T02:05:01Z,42.805,6.029,13.3046,4.60150,2470.646,2023-7-19T04:07:18Z
2023-07-19T02:08:04Z,42.805,6.029,13.3047,4.60145,2470.624,2023-7-19T04:10:21Z
2023-07-19T02:11:07Z,42.805,6.029,13.3041,4.60135,2470.614,2023-7-19T04:13:24Z
2023-07-19T02:14:10Z,42.805,6.029,13.3043,4.60149,2470.646,2023-7-19T04:16:27Z
2023-07-19T02:17:13Z,42.805,6.029,13.3051,4.60142,2470.637,2023-7-19T04:19:30Z
2023-07-19T02:20:16Z,42.805,6.029,13.3052,4.60150,2470.637,2023-7-19T04:22:33Z
2023-07-19T02:23:19Z,42.805,6.029,13.3051,4.60155,2470.637,2023-7-19T04:25:36Z
2023-07-19T02:26:22Z,42.805,6.029,13.3048,4.60125,2470.637,2023-7-19T04:28:39Z
2023-07-19T02:29:25Z,42.805,6.029,13.3041,4.60159,2470.637,2023-7-19T04:31:42Z
2023-07-19T02:32:28Z,42.805,6.029,13.3045,4.60133,2470.6,2023-7-19T04:34:45Z
2023-07-19T02:35:31Z,42.805,6.029,13.3036,4.60140,2470.6,2023-7-19T04:37:48Z
2023-07-19T02:38:34Z,42.805,6.029,13.3034,4.60131,2470.624,2023-7-19T04:40:51Z
2023-07-19T02:41:38Z,42.805,6.029,13.3038,4.60122,2470.661,2023-7-19T04:43:55Z
2023-07-19T02:44:41Z,42.805,6.029,13.3041,4.60125,2470.637,2023-7-19T04:46:58Z
2023-07-19T02:47:44Z,42.805,6.029,13.3038,4.60117,2470.614,2023-7-19T04:50:01Z
2023-07-19T02:50:47Z,42.805,6.029,13.3036,4.60154,2470.646,2023-7-19T04:53:04Z
2023-07-19T02:53:50Z,42.805,6.029,13.3037,4.60139,2470.624,2023-7-19T04:56:07Z
2023-07-19T02:56:53Z,42.805,6.029,13.3041,4.60130,2470.6,2023-7-19T04:59:10Z
2023-07-19T02:59:56Z,42.805,6.029,13.3052,4.60119,2470.646,2023-7-19T05:02:13Z
2023-07-19T03:02:59Z,42.805,6.029,13.3039,4.60121,2470.646,2023-7-19T05:05:16Z
2023-07-19T03:06:02Z,42.805,6.029,13.3040,4.60150,2470.624,2023-7-19T05:08:19Z
2023-07-19T03:09:05Z,42.805,6.029,13.3043,4.60137,2470.586,2023-7-19T05:11:22Z
2023-07-19T03:12:08Z,42.805,6.029,13.3034,4.60136,2470.6,2023-7-19T05:14:25Z
2023-07-19T03:15:11Z,42.805,6.029,13.3046,4.60122,2470.624,2023-7-19T05:17:28Z
2023-07-19T03:18:15Z,42.805,6.029,13.3039,4.60128,2470.637,2023-7-19T05:20:32Z
2023-07-19T03:21:18Z,42.805,6.029,13.3050,4.60150,2470.6,2023-7-19T05:23:35Z
2023-07-19T03:24:21Z,42.805,6.029,13.3042,4.60135,2470.637,2023-7-19T05:26:38Z
2023-07-19T03:27:24Z,42.805,6.029,13.3058,4.60125,2470.624,2023-7-19T05:29:41Z
2023-07-19T03:30:27Z,42.805,6.029,13.3039,4.60123,2470.614,2023-7-19T05:32:44Z
2023-07-19T03:33:30Z,42.805,6.029,13.3045,4.60130,2470.6,2023-7-19T05:35:47Z
2023-07-19T03:36:33Z,42.805,6.029,13.3039,4.60123,2470.6,2023-7-19T05:38:50Z
2023-07-19T03:39:36Z,42.805,6.029,13.3051,4.60129,2470.624,2023-7-19T05:41:53Z
2023-07-19T03:42:39Z,42.805,6.029,13.3046,4.60137,2470.624,2023-7-19T05:44:56Z
2023-07-19T03:45:42Z,42.805,6.029,13.3041,4.60119,2470.6,2023-7-19T05:47:59Z
2023-07-19T03:48:45Z,42.805,6.029,13.3035,4.60129,2470.624,2023-7-19T05:51:02Z
2023-07-19T03:51:48Z,42.805,6.029,13.3042,4.60137,2470.637,2023-7-19T05:54:05Z
2023-07-19T03:54:51Z,42.805,6.029,13.3046,4.60133,2470.6,2023-7-19T05:57:08Z
2023-07-19T03:57:55Z,42.805,6.029,13.3039,4.60149,2470.624,2023-7-19T06:00:12Z
2023-07-19T04:00:58Z,42.805,6.029,13.3047,4.60130,2470.6,2023-7-19T06:03:15Z
2023-07-19T04:04:01Z,42.805,6.029,13.3043,4.60144,2470.624,2023-7-19T06:06:18Z
2023-07-19T04:07:04Z,42.805,6.029,13.3041,4.60144,2470.624,2023-7-19T06:09:21Z
2023-07-19T04:10:07Z,42.805,6.029,13.3041,4.60150,2470.637,2023-7-19T06:12:24Z
2023-07-19T04:13:10Z,42.805,6.029,13.3031,4.60140,2470.6,2023-7-19T06:15:27Z
2023-07-19T04:16:13Z,42.805,6.029,13.3034,4.60130,2470.633,2023-7-19T06:18:30Z
2023-07-19T04:19:16Z,42.805,6.029,13.3044,4.60152,2470.614,2023-7-19T06:21:33Z
2023-07-19T04:22:19Z,42.805,6.029,13.3038,4.60144,2470.637,2023-7-19T06:24:36Z
2023-07-19T04:25:22Z,42.805,6.029,13.3039,4.60116,2470.661,2023-7-19T06:27:39Z
2023-07-19T04:28:25Z,42.805,6.029,13.3039,4.60145,2470.624,2023-7-19T06:30:42Z
2023-07-19T04:31:28Z,42.805,6.029,13.3044,4.60173,2470.637,2023-7-19T06:33:45Z
2023-07-19T04:34:32Z,42.805,6.029,13.3057,4.60143,2470.646,2023-7-19T06:36:49Z
2023-07-19T04:37:35Z,42.805,6.029,13.3037,4.60148,2470.61,2023-7-19T06:39:52Z
2023-07-19T04:40:38Z,42.805,6.029,13.3043,4.60134,2470.637,2023-7-19T06:42:55Z
2023-07-19T04:43:41Z,42.805,6.029,13.3036,4.60134,2470.646,2023-7-19T06:45:58Z
2023-07-19T04:46:44Z,42.805,6.029,13.3048,4.60154,2470.646,2023-7-19T06:49:01Z
2023-07-19T04:49:47Z,42.805,6.029,13.3038,4.60135,2470.646,2023-7-19T06:52:04Z
2023-07-19T04:52:50Z,42.805,6.029,13.3048,4.60153,2470.661,2023-7-19T06:55:07Z
2023-07-19T04:55:53Z,42.805,6.029,13.3043,4.60155,2470.661,2023-7-19T06:58:10Z
2023-07-19T04:58:56Z,42.805,6.029,13.3052,4.60150,2470.67,2023-7-19T07:01:13Z
2023-07-19T05:01:59Z,42.805,6.029,13.3051,4.60150,2470.646,2023-7-19T07:04:16Z
2023-07-19T05:05:02Z,42.805,6.029,13.3047,4.60137,2470.684,2023-7-19T07:07:19Z
2023-07-19T05:08:05Z,42.805,6.029,13.3043,4.60130,2470.646,2023-7-19T07:10:22Z
2023-07-19T05:11:09Z,42.805,6.029,13.3047,4.60154,2470.67,2023-7-19T07:13:26Z
2023-07-19T05:14:12Z,42.805,6.029,13.3046,4.60136,2470.661,2023-7-19T07:16:29Z
2023-07-19T05:17:15Z,42.805,6.029,13.3051,4.60145,2470.661,2023-7-19T07:19:32Z
2023-07-19T05:20:18Z,42.805,6.029,13.3056,4.60163,2470.67,2023-7-19T07:22:35Z
2023-07-19T05:23:21Z,42.805,6.029,13.3056,4.60143,2470.693,2023-7-19T07:25:38Z
2023-07-19T05:26:24Z,42.805,6.029,13.3036,4.60167,2470.73,2023-7-19T07:28:41Z
2023-07-19T05:29:27Z,42.805,6.029,13.3039,4.60144,2470.661,2023-7-19T07:31:44Z
2023-07-19T05:32:30Z,42.805,6.029,13.3051,4.60149,2470.684,2023-7-19T07:34:47Z
2023-07-19T05:35:33Z,42.805,6.029,13.3047,4.60152,2470.646,2023-7-19T07:37:50Z
2023-07-19T05:38:36Z,42.805,6.029,13.3045,4.60137,2470.67,2023-7-19T07:40:53Z
2023-07-19T05:41:39Z,42.805,6.029,13.3048,4.60154,2470.684,2023-7-19T07:43:56Z
2023-07-19T05:44:42Z,42.805,6.029,13.3036,4.60152,2470.67,2023-7-19T07:46:59Z
2023-07-19T05:47:45Z,42.805,6.029,13.3048,4.60148,2470.73,2023-7-19T07:50:03Z
2023-07-19T05:50:49Z,42.805,6.029,13.3044,4.60151,2470.684,2023-7-19T07:53:06Z
2023-07-19T05:53:52Z,42.805,6.029,13.3039,4.60155,2470.693,2023-7-19T07:56:09Z
2023-07-19T05:56:55Z,42.805,6.029,13.3036,4.60140,2470.717,2023-7-19T07:59:12Z
2023-07-19T05:59:58Z,42.805,6.029,13.3054,4.60158,2470.67,2023-7-19T08:02:15Z
2023-07-19T06:03:01Z,42.805,6.029,13.3048,4.60170,2470.717,2023-7-19T08:05:18Z
2023-07-19T06:06:04Z,42.805,6.029,13.3038,4.60169,2470.707,2023-7-19T08:08:21Z
2023-07-19T06:09:07Z,42.805,6.029,13.3052,4.60160,2470.684,2023-7-19T08:11:24Z
2023-07-19T06:12:10Z,42.805,6.029,13.3054,4.60147,2470.693,2023-7-19T08:14:27Z
2023-07-19T06:15:13Z,42.805,6.029,13.3042,4.60143,2470.693,2023-7-19T08:17:30Z
2023-07-19T06:18:16Z,42.805,6.029,13.3046,4.60147,2470.707,2023-7-19T08:20:33Z
2023-07-19T06:21:19Z,42.805,6.029,13.3049,4.60167,2470.646,2023-7-19T08:23:36Z
2023-07-19T06:24:22Z,42.805,6.029,13.3042,4.60155,2470.67,2023-7-19T08:26:39Z
2023-07-19T06:27:26Z,42.805,6.029,13.3054,4.60150,2470.717,2023-7-19T08:29:43Z
2023-07-19T06:30:28Z,42.805,6.029,13.3046,4.60149,2470.646,2023-7-19T08:32:45Z
2023-07-19T06:33:31Z,42.805,6.029,13.3058,4.60157,2470.717,2023-7-19T08:35:48Z
2023-07-19T06:36:34Z,42.805,6.029,13.3039,4.60162,2470.67,2023-7-19T08:38:51Z
2023-07-19T06:39:37Z,42.805,6.029,13.3048,4.60149,2470.707,2023-7-19T08:41:54Z
2023-07-19T06:42:40Z,42.805,6.029,13.3051,4.60162,2470.693,2023-7-19T08:44:57Z
2023-07-19T06:45:43Z,42.805,6.029,13.3043,4.60169,2470.73,2023-7-19T08:48:00Z
2023-07-19T06:48:46Z,42.805,6.029,13.3044,4.60160,2470.717,2023-7-19T08:51:03Z
2023-07-19T06:51:49Z,42.805,6.029,13.3048,4.60155,2470.693,2023-7-19T08:54:06Z
2023-07-19T06:54:52Z,42.805,6.029,13.3048,4.60179,2470.707,2023-7-19T08:57:09Z
2023-07-19T06:57:56Z,42.805,6.029,13.3046,4.60179,2470.707,2023-7-19T09:00:13Z
2023-07-19T07:00:59Z,42.805,6.029,13.3047,4.60155,2470.717,2023-7-19T09:03:16Z
2023-07-19T07:04:02Z,42.805,6.029,13.3047,4.60160,2470.74,2023-7-19T09:06:19Z
2023-07-19T07:07:05Z,42.805,6.029,13.3045,4.60154,2470.754,2023-7-19T09:09:22Z
2023-07-19T07:10:08Z,42.805,6.029,13.3046,4.60173,2470.717,2023-7-19T09:12:25Z
2023-07-19T07:13:11Z,42.805,6.029,13.3036,4.60181,2470.717,2023-7-19T09:15:28Z
2023-07-19T07:16:14Z,42.805,6.029,13.3039,4.60156,2470.717,2023-7-19T09:18:31Z
2023-07-19T07:19:17Z,42.805,6.029,13.3046,4.60156,2470.693,2023-7-19T09:21:34Z
2023-07-19T07:22:20Z,42.805,6.029,13.3045,4.60154,2470.717,2023-7-19T09:24:37Z
2023-07-19T07:25:23Z,42.805,6.029,13.3047,4.60159,2470.717,2023-7-19T09:27:40Z
2023-07-19T07:28:26Z,42.805,6.029,13.3041,4.60163,2470.777,2023-7-19T09:30:43Z
2023-07-19T07:31:29Z,42.805,6.029,13.3051,4.60157,2470.693,2023-7-19T09:33:46Z
2023-07-19T07:34:32Z,42.805,6.029,13.3045,4.60169,2470.693,2023-7-19T09:36:49Z
2023-07-19T07:37:36Z,42.805,6.029,13.3039,4.60178,2470.707,2023-7-19T09:39:53Z
2023-07-19T07:40:39Z,42.805,6.029,13.3045,4.60166,2470.754,2023-7-19T09:42:56Z
2023-07-19T07:43:42Z,42.805,6.029,13.3042,4.60180,2470.707,2023-7-19T09:45:59Z
2023-07-19T07:46:45Z,42.805,6.029,13.3056,4.60160,2470.717,2023-7-19T09:49:02Z
2023-07-19T07:49:48Z,42.805,6.029,13.3034,4.60170,2470.707,2023-7-19T09:52:05Z
2023-07-19T07:52:51Z,42.805,6.029,13.3044,4.60172,2470.73,2023-7-19T09:55:08Z
2023-07-19T07:55:54Z,42.805,6.029,13.3061,4.60160,2470.693,2023-7-19T09:58:11Z
2023-07-19T07:58:57Z,42.805,6.029,13.3063,4.60173,2470.717,2023-7-19T10:01:14Z
2023-07-19T08:02:00Z,42.805,6.029,13.3044,4.60147,2470.717,2023-7-19T10:04:17Z
2023-07-19T08:05:03Z,42.805,6.029,13.3039,4.60162,2470.707,2023-7-19T10:07:20Z
2023-07-19T08:08:06Z,42.805,6.029,13.3051,4.60152,2470.717,2023-7-19T10:10:23Z
2023-07-19T08:11:09Z,42.805,6.029,13.3036,4.60142,2470.67,2023-7-19T10:13:26Z
2023-07-19T08:14:13Z,42.805,6.029,13.3069,4.60163,2470.754,2023-7-19T10:16:30Z
2023-07-19T08:17:16Z,42.805,6.029,13.3043,4.60169,2470.707,2023-7-19T10:19:33Z
2023-07-19T08:20:19Z,42.805,6.029,13.3049,4.60158,2470.717,2023-7-19T10:22:36Z
2023-07-19T08:23:22Z,42.805,6.029,13.3041,4.60178,2470.707,2023-7-19T10:25:39Z
2023-07-19T08:26:25Z,42.805,6.029,13.3043,4.60160,2470.717,2023-7-19T10:28:42Z
2023-07-19T08:29:28Z,42.805,6.029,13.3065,4.60175,2470.717,2023-7-19T10:31:45Z
2023-07-19T08:32:31Z,42.805,6.029,13.3048,4.60169,2470.693,2023-7-19T10:34:48Z
2023-07-19T08:35:34Z,42.805,6.029,13.3055,4.60183,2470.707,2023-7-19T10:37:51Z
2023-07-19T08:38:37Z,42.805,6.029,13.3058,4.60192,2470.693,2023-7-19T10:40:54Z
2023-07-19T08:41:40Z,42.805,6.029,13.3061,4.60175,2470.693,2023-7-19T10:43:57Z
2023-07-19T08:44:43Z,42.805,6.029,13.3063,4.60178,2470.684,2023-7-19T10:47:00Z
2023-07-19T08:47:46Z,42.805,6.029,13.3056,4.60178,2470.707,2023-7-19T10:50:03Z
2023-07-19T08:50:49Z,42.805,6.029,13.3047,4.60181,2470.693,2023-7-19T10:53:06Z
2023-07-19T08:53:52Z,42.805,6.029,13.3043,4.60185,2470.707,2023-7-19T10:56:09Z
2023-07-19T08:56:55Z,42.805,6.029,13.3041,4.60190,2470.693,2023-7-19T10:59:12Z
2023-07-19T08:59:59Z,42.805,6.029,13.3048,4.60160,2470.707,2023-7-19T11:02:16Z
2023-07-19T09:03:02Z,42.805,6.029,13.3048,4.60157,2470.67,2023-7-19T11:05:19Z
2023-07-19T09:06:05Z,42.805,6.029,13.3052,4.60165,2470.707,2023-7-19T11:08:22Z
2023-07-19T09:09:08Z,42.805,6.029,13.3047,4.60170,2470.707,2023-7-19T11:11:25Z
2023-07-19T09:12:11Z,42.805,6.029,13.3041,4.60152,2470.693,2023-7-19T11:14:28Z
2023-07-19T09:15:14Z,42.805,6.029,13.3060,4.60172,2470.707,2023-7-19T11:17:31Z
2023-07-19T09:18:17Z,42.805,6.029,13.3043,4.60179,2470.707,2023-7-19T11:20:34Z
2023-07-19T09:21:20Z,42.805,6.029,13.3041,4.60157,2470.67,2023-7-19T11:23:37Z
2023-07-19T09:24:23Z,42.805,6.029,13.3047,4.60193,2470.67,2023-7-19T11:26:40Z
2023-07-19T09:27:26Z,42.805,6.029,13.3054,4.60182,2470.684,2023-7-19T11:29:43Z
2023-07-19T09:30:29Z,42.805,6.029,13.3056,4.60127,2470.693,2023-7-19T11:32:46Z
2023-07-19T09:33:32Z,42.805,6.029,13.3034,4.60167,2470.707,2023-7-19T11:35:49Z
2023-07-19T09:36:36Z,42.805,6.029,13.3040,4.60142,2470.707,2023-7-19T11:38:53Z
2023-07-19T09:39:39Z,42.805,6.029,13.3043,4.60148,2470.693,2023-7-19T11:41:56Z
2023-07-19T09:42:42Z,42.805,6.029,13.3040,4.60161,2470.684,2023-7-19T11:44:59Z
2023-07-19T09:45:45Z,42.805,6.029,13.3052,4.60136,2470.67,2023-7-19T11:48:02Z
2023-07-19T09:48:48Z,42.805,6.029,13.3045,4.60152,2470.67,2023-7-19T11:51:05Z
2023-07-19T09:51:51Z,42.805,6.029,13.3043,4.60152,2470.717,2023-7-19T11:54:08Z
2023-07-19T09:54:54Z,42.805,6.029,13.3076,4.60167,2470.661,2023-7-19T11:57:11Z
2023-07-19T09:57:57Z,42.805,6.029,13.3039,4.60150,2470.67,2023-7-19T12:00:14Z
2023-07-19T10:01:00Z,42.805,6.029,13.3046,4.60161,2470.67,2023-7-19T12:03:17Z
2023-07-19T10:04:03Z,42.805,6.029,13.3048,4.60164,2470.67,2023-7-19T12:06:20Z
2023-07-19T10:07:06Z,42.805,6.029,13.3051,4.60171,2470.684,2023-7-19T12:09:23Z
2023-07-19T10:10:10Z,42.805,6.029,13.3045,4.60158,2470.661,2023-7-19T12:12:27Z
2023-07-19T10:13:13Z,42.805,6.029,13.3048,4.60161,2470.693,2023-7-19T12:15:30Z
2023-07-19T10:16:16Z,42.805,6.029,13.3078,4.60177,2470.67,2023-7-19T12:18:33Z
2023-07-19T10:19:19Z,42.805,6.029,13.3051,4.60167,2470.67,2023-7-19T12:21:36Z
2023-07-19T10:22:22Z,42.805,6.029,13.3044,4.60162,2470.646,2023-7-19T12:24:39Z
2023-07-19T10:25:25Z,42.805,6.029,13.3074,4.60142,2470.661,2023-7-19T12:27:42Z
2023-07-19T10:28:28Z,42.805,6.029,13.3043,4.60178,2470.646,2023-7-19T12:30:45Z
2023-07-19T10:31:29Z,42.805,6.029,13.3072,4.60170,2470.624,2023-7-19T12:33:46Z
2023-07-19T10:34:32Z,42.805,6.029,13.3054,4.60161,2470.67,2023-7-19T12:36:49Z
2023-07-19T10:37:36Z,42.805,6.029,13.3070,4.60157,2470.646,2023-7-19T12:39:53Z
2023-07-19T10:40:39Z,42.805,6.029,13.3047,4.60172,2470.646,2023-7-19T12:42:56Z
2023-07-19T10:43:42Z,42.805,6.029,13.3048,4.60173,2470.646,2023-7-19T12:45:59Z
2023-07-19T10:46:45Z,42.805,6.029,13.3061,4.60173,2470.661,2023-7-19T12:49:02Z
2023-07-19T10:49:48Z,42.805,6.029,13.3052,4.60167,2470.646,2023-7-19T12:52:05Z
2023-07-19T10:52:51Z,42.805,6.029,13.3067,4.60115,2470.661,2023-7-19T12:55:08Z
2023-07-19T10:55:54Z,42.805,6.029,13.3072,4.60170,2470.624,2023-7-19T12:58:11Z
2023-07-19T10:58:57Z,42.805,6.029,13.3038,4.60146,2470.661,2023-7-19T13:01:14Z
2023-07-19T11:02:00Z,42.805,6.029,13.3046,4.60146,2470.646,2023-7-19T13:04:17Z
2023-07-19T11:05:03Z,42.805,6.029,13.3052,4.60170,2470.661,2023-7-19T13:07:20Z
2023-07-19T11:08:06Z,42.805,6.029,13.3050,4.60173,2470.646,2023-7-19T13:10:23Z
2023-07-19T11:11:09Z,42.805,6.029,13.3040,4.60177,2470.646,2023-7-19T13:13:26Z
2023-07-19T11:14:13Z,42.805,6.029,13.3041,4.60150,2470.614,2023-7-19T13:16:30Z
2023-07-19T11:17:16Z,42.805,6.029,13.3049,4.60160,2470.624,2023-7-19T13:19:33Z
2023-07-19T11:20:19Z,42.805,6.029,13.3053,4.60142,2470.6,2023-7-19T13:22:36Z
2023-07-19T11:23:22Z,42.805,6.029,13.3045,4.60144,2470.624,2023-7-19T13:25:39Z
2023-07-19T11:26:25Z,42.805,6.029,13.3050,4.60150,2470.637,2023-7-19T13:28:42Z
2023-07-19T11:29:28Z,42.805,6.029,13.3044,4.60147,2470.637,2023-7-19T13:31:45Z
2023-07-19T11:32:31Z,42.805,6.029,13.3048,4.60145,2470.637,2023-7-19T13:34:48Z
2023-07-19T11:35:34Z,42.805,6.029,13.3042,4.60161,2470.614,2023-7-19T13:37:51Z
2023-07-19T11:38:37Z,42.805,6.029,13.3048,4.60170,2470.6,2023-7-19T13:40:54Z
2023-07-19T11:41:40Z,42.805,6.029,13.3062,4.60164,2470.637,2023-7-19T13:43:57Z
2023-07-19T11:44:43Z,42.805,6.029,13.3056,4.60158,2470.591,2023-7-19T13:47:00Z
2023-07-19T11:47:46Z,42.805,6.029,13.3053,4.60157,2470.646,2023-7-19T13:50:03Z
2023-07-19T11:50:50Z,42.805,6.029,13.3044,4.60176,2470.637,2023-7-19T13:53:07Z
2023-07-19T11:53:53Z,42.805,6.029,13.3045,4.60155,2470.614,2023-7-19T13:56:10Z
2023-07-19T11:56:56Z,42.805,6.029,13.3058,4.60135,2470.6,2023-7-19T13:59:13Z
2023-07-19T11:59:59Z,42.805,6.029,13.3058,4.60167,2470.6,2023-7-19T14:02:16Z
2023-07-19T12:03:02Z,42.805,6.029,13.3046,4.60148,2470.624,2023-7-19T14:05:19Z
2023-07-19T12:06:05Z,42.805,6.029,13.3040,4.60167,2470.6,2023-7-19T14:08:22Z
2023-07-19T12:09:08Z,42.805,6.029,13.3053,4.60167,2470.614,2023-7-19T14:11:25Z
2023-07-19T12:12:11Z,42.805,6.029,13.3041,4.60157,2470.646,2023-7-19T14:14:28Z
2023-07-19T12:15:14Z,42.805,6.029,13.3050,4.60144,2470.577,2023-7-19T14:17:31Z
2023-07-19T12:18:17Z,42.805,6.029,13.3035,4.60147,2470.637,2023-7-19T14:20:34Z
2023-07-19T12:21:20Z,42.805,6.029,13.3051,4.60161,2470.637,2023-7-19T14:23:37Z
2023-07-19T12:24:23Z,42.805,6.029,13.3045,4.60149,2470.614,2023-7-19T14:26:40Z
2023-07-19T12:27:27Z,42.805,6.029,13.3042,4.60152,2470.577,2023-7-19T14:29:44Z
2023-07-19T12:30:30Z,42.805,6.029,13.3051,4.60151,2470.614,2023-7-19T14:32:47Z
2023-07-19T12:33:33Z,42.805,6.029,13.3053,4.60188,2470.577,2023-7-19T14:35:50Z
2023-07-19T12:36:36Z,42.805,6.029,13.3054,4.60175,2470.577,2023-7-19T14:38:53Z
2023-07-19T12:39:39Z,42.805,6.029,13.3057,4.60170,2470.591,2023-7-19T14:41:56Z
2023-07-19T12:42:42Z,42.805,6.029,13.3046,4.60158,2470.553,2023-7-19T14:44:59Z
2023-07-19T12:45:45Z,42.805,6.029,13.3046,4.60182,2470.591,2023-7-19T14:48:02Z
2023-07-19T12:48:48Z,42.805,6.029,13.3054,4.60171,2470.577,2023-7-19T14:51:05Z
2023-07-19T12:51:51Z,42.805,6.029,13.3039,4.60130,2470.567,2023-7-19T14:54:08Z
2023-07-19T12:54:54Z,42.805,6.029,13.3039,4.60149,2470.591,2023-7-19T14:57:11Z
2023-07-19T12:57:57Z,42.805,6.029,13.3043,4.60132,2470.577,2023-7-19T15:00:14Z
2023-07-19T13:01:01Z,42.805,6.029,13.3043,4.60137,2470.591,2023-7-19T15:03:18Z
2023-07-19T13:04:04Z,42.805,6.029,13.3043,4.60126,2470.553,2023-7-19T15:06:21Z
2023-07-19T13:07:07Z,42.805,6.029,13.3045,4.60133,2470.553,2023-7-19T15:09:24Z
2023-07-19T13:10:10Z,42.805,6.029,13.3040,4.60138,2470.553,2023-7-19T15:12:27Z
2023-07-19T13:13:13Z,42.805,6.029,13.3048,4.60149,2470.6,2023-7-19T15:15:30Z
2023-07-19T13:16:16Z,42.805,6.029,13.3047,4.60140,2470.567,2023-7-19T15:18:33Z
2023-07-19T13:19:19Z,42.805,6.029,13.3044,4.60143,2470.544,2023-7-19T15:21:36Z
2023-07-19T13:22:22Z,42.805,6.029,13.3048,4.60138,2470.591,2023-7-19T15:24:39Z
2023-07-19T13:25:25Z,42.805,6.029,13.3043,4.60143,2470.567,2023-7-19T15:27:42Z
2023-07-19T13:28:28Z,42.805,6.029,13.3042,4.60132,2470.553,2023-7-19T15:30:45Z
2023-07-19T13:31:31Z,42.805,6.029,13.3045,4.60157,2470.591,2023-7-19T15:33:48Z
2023-07-19T13:34:34Z,42.805,6.029,13.3042,4.60126,2470.577,2023-7-19T15:36:51Z
2023-07-19T13:37:38Z,42.805,6.029,13.3045,4.60141,2470.567,2023-7-19T15:39:55Z
2023-07-19T13:40:41Z,42.805,6.029,13.3039,4.60135,2470.553,2023-7-19T15:42:58Z
2023-07-19T13:43:44Z,42.805,6.029,13.3049,4.60152,2470.577,2023-7-19T15:46:01Z
2023-07-19T13:46:47Z,42.805,6.029,13.3043,4.60135,2470.567,2023-7-19T15:49:04Z
2023-07-19T13:49:50Z,42.805,6.029,13.3048,4.60150,2470.553,2023-7-19T15:52:07Z
2023-07-19T13:52:53Z,42.805,6.029,13.3045,4.60144,2470.567,2023-7-19T15:55:10Z
2023-07-19T13:55:56Z,42.805,6.029,13.3046,4.60124,2470.567,2023-7-19T15:58:13Z
2023-07-19T13:58:59Z,42.805,6.029,13.3053,4.60135,2470.53,2023-7-19T16:01:16Z
2023-07-19T14:02:02Z,42.805,6.029,13.3041,4.60145,2470.577,2023-7-19T16:04:19Z
2023-07-19T14:05:05Z,42.805,6.029,13.3051,4.60163,2470.553,2023-7-19T16:07:22Z
2023-07-19T14:08:08Z,42.805,6.029,13.3051,4.60157,2470.516,2023-7-19T16:10:25Z
2023-07-19T14:11:11Z,42.805,6.029,13.3050,4.60162,2470.614,2023-7-19T16:13:28Z
2023-07-19T14:14:15Z,42.805,6.029,13.3042,4.60144,2470.577,2023-7-19T16:16:32Z
2023-07-19T14:17:18Z,42.805,6.029,13.3047,4.60143,2470.567,2023-7-19T16:19:35Z
2023-07-19T14:20:21Z,42.805,6.029,13.3041,4.60138,2470.507,2023-7-19T16:22:38Z
2023-07-19T14:23:24Z,42.805,6.029,13.3042,4.60161,2470.553,2023-7-19T16:25:41Z
2023-07-19T14:26:27Z,42.805,6.029,13.3049,4.60155,2470.52,2023-7-19T16:28:44Z
2023-07-19T14:29:30Z,42.805,6.029,13.3048,4.60127,2470.553,2023-7-19T16:31:47Z
2023-07-19T14:32:32Z,42.805,6.029,13.3038,4.60134,2470.553,2023-7-19T16:34:49Z
2023-07-19T14:35:35Z,42.805,6.029,13.3046,4.60155,2470.567,2023-7-19T16:37:52Z
2023-07-19T14:38:38Z,42.805,6.029,13.3047,4.60154,2470.591,2023-7-19T16:40:55Z
2023-07-19T14:41:41Z,42.805,6.029,13.3036,4.60152,2470.567,2023-7-19T16:43:58Z
2023-07-19T14:44:44Z,42.805,6.029,13.3047,4.60147,2470.567,2023-7-19T16:47:01Z
2023-07-19T14:47:47Z,42.805,6.029,13.3054,4.60150,2470.553,2023-7-19T16:50:04Z
2023-07-19T14:50:50Z,42.805,6.029,13.3035,4.60138,2470.553,2023-7-19T16:53:08Z
2023-07-19T14:53:54Z,42.805,6.029,13.3036,4.60117,2470.544,2023-7-19T16:56:11Z
2023-07-19T14:56:57Z,42.805,6.029,13.3034,4.60109,2470.591,2023-7-19T16:59:14Z
2023-07-19T15:00:00Z,42.805,6.029,13.3034,4.60119,2470.567,2023-7-19T17:02:17Z
2023-07-19T15:03:03Z,42.805,6.029,13.3042,4.60119,2470.553,2023-7-19T17:05:20Z
2023-07-19T15:06:06Z,42.805,6.029,13.3049,4.60132,2470.567,2023-7-19T17:08:23Z
2023-07-19T15:09:09Z,42.805,6.029,13.3039,4.60144,2470.544,2023-7-19T17:11:26Z
2023-07-19T15:12:12Z,42.805,6.029,13.3043,4.60145,2470.544,2023-7-19T17:14:29Z